User: anonymous   Login
Location: Bílinka
(49.3579°N, 14.3767°E)
Time: 11:31:53
(UTC+00:00)
Language:

Meteor 2-12 Rocket - Orbit

View from above orbital plane
View from above orbital plane
View from above satellite
View from above satellite

Ground track
Ground track

The orbit data is extracted from the following two-line orbital elements,

1 15517U 85013B   23151.13142266  .00000045  00000-0  26971-4 0  9991
2 15517  82.5339 150.2171 0014225 201.5684 158.4879 13.84924045936389
Epoch (UTC): 31 May 2023 03:09:14
Eccentricity: 0.0014225
inclination: 82.5339°
perigee height: 936 km
apogee height: 957 km
right ascension of ascending node: 150.2171°
argument of perigee: 201.5684°
revolutions per day: 13.84924045
mean anomaly at epoch: 158.4879°
orbit number at epoch: 93638

The dashed part of the orbit path shows where the satellite is in the earth's shadow,  

DLR